CZ-4 DEB

基本信息
目录编号:
20878
目录名称:
CZ-4 DEB
国际标识:
1990-081AN
轨道中心:
EARTH
物体状态:
已陨落(2025-07-30)
发射日期:
1990-09-03 UTC
轨道信息
数据来源: 国际轨道数据
星历时间: 2025-07-30T00:19:52+0800
半长轴: 6622.21km
偏心率: 0.0014433
轨道倾角: 98.038°
近地点辐角: 256.009°
升交点赤经: 257.635°
平近点角: 103.959°
近地点: 234.517km
远地点: 253.633km
周期: 89.385分钟
每日圈数: 16.110105
详细信息
发射场:
TSC
轨道高度:
LEO
数据来源:
AOE Integration Group
参考系:
TEME
时间系统:
UTC
历元类型:
SGP4
2D轨道图
3D轨道图
轨道高度分析图
轨道倾角分析图
轨道综合分析图
查看轨道综合分析图